"Pseudo-MPEC" for P10NAV9

Created 2019 May 24 15:07:16 UT using Find_Orb

Click here for an explanation of pseudo-MPECs

 
 Astrometry: 
     P10NAV9  C2019 05 07J,\ltR/#FeL=*B**-n]AJ@'HYaTkH@fL#?/N$U:*sxMW]4%@/O:6F51
     P10NAV9  C2019 05 07QsQ+y%_,bE`qMAIytP0Wd5ws?7cpd:V\m[AsA)r\T[AI4;SEL=ZIF51
     P10NAV9  C2019 05 07jy:-JXG;oa\B]@o?No?/6CD,PCXn#\8WvAstrometryF[UGaJp,9F51
     P10NAV9 |C2019 05 10_.XUWRdmubSK+2scnftDfredacted;USgp#^rdQ2j9jEpB0=qLqw807
     P10NAV9 |C2019 05 102)JOw6IuXOjNR(Y2-r#,Byp_qCVn/_r^6/a2esa/!m7!dJ4KvkWD807
     P10NAV9 |C2019 05 10NX;K4cZN\rEY*0,Et-9e.#6v(fA__f3='8click+Er3[DR#6jc\d807
     P10NAV9 |C2019 05 11pOPY,@U4`wsEcaDyHCL5$pA^NXO7:mbiwAu=vc$M\#6w@5wBXIW7807
     P10NAV9 |C2019 05 11sSuG1J9%!H;Bw3r`kFvn6thKq0^tBuGupI`ub?mcAb_uWXfWT5n(807
     P10NAV9 |C2019 05 11#sS4W'0,O_#xER`E#_-W]s5#QC8yLpr%^P-n\6S94RENJj+/RG@5807
     P10NAV9 |C2019 05 22t/8%R+$X!Q8_'yS=5`1#lVQ!6%S7EB1TZk`?Is@1Y[0fSyLdrt-4807
     P10NAV9 |C2019 05 23OCm(ZlJE_j;$:4y:EXP/E).KG0Du=2K:ZSNLXsMqdBuXVNLhereU807
     P10NAV9 |C2019 05 23-d,_LW,\U(ShSm`uNrnUi2w?D-mqbML`3x?4M!Ao.4qocFAXU1D-807
     P10NAV9 KC2019 05 24Pi:C:#xg)^(V@p*u8y*qSjqtforLexplanation+F3[iNY)QWqZo291
     P10NAV9 KC2019 05 24KLE3VAKUK+LXuCRwJ8x]Mg1,q=BQ3mm_9Z;4_J_kwqftIxa65)!u291
     P10NAV9 KC2019 05 24T9voLDe7wZK\*d'[[n0*2.F(D[10fIgO:]:QZNqYfx:!F$,23,:1291

Station data:
(291) LPL/Spacewatch II  (N31.961669 W111.599905)  US/Arizona.  Observers J.
   V. Scotti, R. S. McMillan. 1.8-m f/2.7 reflector + CCD.
(807) Cerro Tololo Observatory, La Serena  (S30.169136 W70.805900)  Chile.
(F51) Pan-STARRS 1, Haleakala  (N20.707235 W156.255910)  US/Hawaii.
   Observers N. Primak, A. Schultz, S. Watters, J. Thiel, T. Goggia. Measurer
   PS1 Science Consortium. 1.8-m Ritchey-Chrétien + CCD.

Orbital elements:  P10NAV9
   Perihelion 2019 Aug 5.871884 +/- 0.0623 TT = 20:55:30 (JD 2458701.371884)
Epoch 2019 May 24.0 TT = JDT 2458627.5   Earth MOID: 0.1596   Ma: 0.0290
M 335.24630186 +/- 0.026            (J2000 ecliptic)          AutoNEOCP
n   0.33508957 +/- 0.000346         Peri.  252.18359 +/- 0.027
a   2.05287310 +/- 0.00142          Node    40.86368 +/- 0.008
e   0.4514901 +/- 0.000349          Incl.    6.71304 +/- 0.010
P   2.94                   H 22.2   G  0.15   U  7.4  
q 1.12602114 +/- 0.000158    Q 2.97972506 +/- 0.00276
From 15 observations 2019 May 7-24; mean residual 0".41
Residuals in arcseconds: 
190507 F51  .13-  .03+    190510 807  .05-  .27+    190523 807  .35-  .19-    
190507 F51  .04+  .13-    190511 807  .05-  .04+    190523 807  .15+  .32-    
190507 F51  .08-  .07-    190511 807  .06-  .18+    190524 291  .51+  .72-    
190510 807  .04+  .55-    190511 807  .08+  .19+    190524 291  .75-  1.5+    
190510 807  .36+  .22+    190522 807  .26-  .18-    190524 291  .63+  .21-    

Ephemerides (geocentric):
Date (UTC) HH   RA              Dec         delta   r     elong  mag " sig PA
---- -- -- --  -------------   -----------  ------ ------ -----  --- ---- ---
2019 05 24 15  12 58 17.105   -09 30 32.81  .44654 1.3617 134.1 22.5 .182 154
2019 05 24 16  12 58 14.600   -09 30 55.54  .44650 1.3615 134.1 22.5 .189 154
2019 05 24 17  12 58 12.100   -09 31 18.30  .44645 1.3613 134.0 22.5 .196 154
2019 05 24 18  12 58 09.607   -09 31 41.10  .44641 1.3610 134.0 22.5 .203 154
2019 05 24 19  12 58 07.118   -09 32 03.93  .44637 1.3608 133.9 22.5 .211 154
2019 05 24 20  12 58 04.636   -09 32 26.80  .44632 1.3606 133.9 22.5 .218 154
2019 05 24 21  12 58 02.159   -09 32 49.70  .44628 1.3604 133.8 22.5 .225 154
2019 05 24 22  12 57 59.687   -09 33 12.65  .44624 1.3601 133.8 22.5 .233 154
2019 05 24 23  12 57 57.222   -09 33 35.62  .44620 1.3599 133.7 22.5 .240 154
2019 05 25 00  12 57 54.762   -09 33 58.64  .44615 1.3597 133.7 22.5 .248 154
2019 05 25 01  12 57 52.307   -09 34 21.68  .44611 1.3595 133.6 22.5 .255 154
2019 05 25 02  12 57 49.858   -09 34 44.77  .44607 1.3592 133.6 22.5 .263 154
2019 05 25 03  12 57 47.415   -09 35 07.89  .44603 1.3590 133.5 22.5 .270 154
2019 05 25 04  12 57 44.977   -09 35 31.05  .44598 1.3588 133.5 22.5 .278 154
2019 05 25 05  12 57 42.545   -09 35 54.24  .44594 1.3585 133.4 22.5 .286 154
2019 05 25 06  12 57 40.119   -09 36 17.47  .44590 1.3583 133.4 22.5 .294 153
2019 05 25 07  12 57 37.698   -09 36 40.73  .44586 1.3581 133.3 22.5 .301 153
2019 05 25 08  12 57 35.284   -09 37 04.03  .44582 1.3579 133.3 22.5 .309 153
2019 05 25 09  12 57 32.874   -09 37 27.37  .44578 1.3576 133.3 22.5 .317 153
2019 05 25 10  12 57 30.471   -09 37 50.74  .44573 1.3574 133.2 22.5 .325 153
2019 05 25 11  12 57 28.073   -09 38 14.15  .44569 1.3572 133.2 22.5 .333 153
2019 05 25 12  12 57 25.681   -09 38 37.60  .44565 1.3570 133.1 22.5 .341 153
2019 05 25 13  12 57 23.294   -09 39 01.08  .44561 1.3567 133.1 22.5 .349 153
2019 05 25 14  12 57 20.913   -09 39 24.59  .44557 1.3565 133.0 22.5 .357 153
2019 05 25 15  12 57 18.538   -09 39 48.15  .44553 1.3563 133.0 22.5 .365 153
2019 05 25 16  12 57 16.169   -09 40 11.74  .44549 1.3561 132.9 22.5 .374 153
2019 05 25 17  12 57 13.805   -09 40 35.36  .44545 1.3558 132.9 22.5 .382 153
2019 05 25 18  12 57 11.448   -09 40 59.02  .44541 1.3556 132.8 22.5 .390 153
2019 05 25 19  12 57 09.095   -09 41 22.72  .44537 1.3554 132.8 22.5 .398 153
2019 05 25 20  12 57 06.749   -09 41 46.45  .44533 1.3552 132.7 22.5 .407 153
2019 05 25 21  12 57 04.408   -09 42 10.22  .44529 1.3549 132.7 22.5 .415 153
2019 05 25 22  12 57 02.074   -09 42 34.03  .44525 1.3547 132.6 22.5 .424 153
2019 05 25 23  12 56 59.744   -09 42 57.87  .44521 1.3545 132.6 22.5 .432 153
2019 05 26 00  12 56 57.421   -09 43 21.75  .44517 1.3543 132.5 22.5 .441 153
2019 05 26 01  12 56 55.104   -09 43 45.66  .44513 1.3540 132.5 22.5 .449 153
2019 05 26 02  12 56 52.792   -09 44 09.61  .44509 1.3538 132.5 22.5 .458 153
2019 05 26 03  12 56 50.486   -09 44 33.60  .44505 1.3536 132.4 22.5 .466 153
2019 05 26 04  12 56 48.186   -09 44 57.62  .44501 1.3534 132.4 22.5 .475 153
2019 05 26 05  12 56 45.891   -09 45 21.68  .44498 1.3531 132.3 22.5 .484 153
2019 05 26 06  12 56 43.603   -09 45 45.78  .44494 1.3529 132.3 22.5 .493 153
2019 05 26 07  12 56 41.320   -09 46 09.91  .44490 1.3527 132.2 22.5 .502 153
2019 05 26 08  12 56 39.043   -09 46 34.08  .44486 1.3525 132.2 22.5 .511 153
2019 05 26 09  12 56 36.772   -09 46 58.28  .44482 1.3522 132.1 22.5 .519 153
2019 05 26 10  12 56 34.506   -09 47 22.52  .44478 1.3520 132.1 22.5 .528 153
2019 05 26 11  12 56 32.247   -09 47 46.80  .44475 1.3518 132.0 22.5 .537 153
2019 05 26 12  12 56 29.993   -09 48 11.11  .44471 1.3516 132.0 22.5 .547 153
2019 05 26 13  12 56 27.745   -09 48 35.46  .44467 1.3513 131.9 22.5 .556 153
2019 05 26 14  12 56 25.503   -09 48 59.85  .44463 1.3511 131.9 22.5 .565 153